Theta_e
307 312 315 317 320 323 326 328 329 329 328 324 323 323 322 321 321 320 320 320 319 318 320 322 319 317 318 318 313 310 309 310 310 313 317 309 304 305 303 301 300 300 301 302 303 304 305 306 309 309 308 311 315 317 319 321 322 323 324 327 329 331 334 335 336 336 336 335 336 336 336 336 336 336 335 333 333 334 335 335 335 333 333 334 334 334 334 334 334 333 333 332 331 330 330 330 329
309 316 319 319 321 326 329 327 326 326 324 322 322 321 321 319 318 318 317 317 318 320 321 322 320 316 315 314 311 310 310 308 305 306 307 304 303 303 301 300 299 300 300 301 302 304 305 306 308 308 307 309 314 317 317 319 320 321 323 325 327 329 331 333 335 336 336 335 336 336 336 336 336 337 336 335 335 335 335 335 335 335 334 332 333 335 334 334 333 333 332 332 331 330 330 330 329
314 320 321 322 324 326 328 326 324 322 322 323 321 317 317 317 317 316 314 314 316 321 322 323 321 317 317 315 312 311 310 307 304 304 304 303 303 301 300 299 299 300 300 301 302 303 304 305 306 307 308 309 312 315 316 318 318 320 321 323 325 326 329 331 334 336 336 336 336 335 336 335 335 336 336 335 335 335 336 335 335 336 335 332 334 335 335 334 333 333 332 332 331 330 330 329 327
317 320 320 322 327 327 329 328 324 321 321 322 319 316 314 315 315 314 313 312 313 317 320 323 320 315 316 314 313 310 307 306 305 303 303 303 301 300 299 299 299 300 300 301 302 303 304 304 305 306 308 309 312 313 314 317 317 318 319 321 323 325 327 328 331 334 335 336 336 336 335 335 335 336 336 336 335 335 335 335 334 335 336 334 335 335 334 333 333 333 332 332 331 330 330 328 327
319 321 320 322 328 327 328 326 321 318 318 319 318 314 312 312 313 314 314 312 311 312 314 320 320 315 312 310 310 308 305 305 305 303 302 302 300 299 299 299 300 300 301 301 302 303 304 305 306 306 307 308 311 313 313 314 315 316 317 320 321 323 325 326 328 331 333 335 336 336 336 335 336 336 336 336 336 336 336 336 335 335 336 335 336 335 334 334 333 332 331 331 330 329 329 328 328
320 322 321 322 326 324 325 322 317 315 313 315 314 311 310 310 310 312 314 312 310 310 311 315 319 316 310 307 306 306 305 304 304 303 301 300 299 299 299 299 300 300 301 301 303 303 304 305 306 307 307 307 309 312 313 312 313 315 316 318 319 321 322 324 326 328 330 333 335 335 336 336 336 336 337 337 337 337 337 336 335 336 336 336 336 335 334 334 333 331 329 330 330 329 329 328 328
321 323 324 325 324 322 321 319 317 314 311 311 310 309 309 309 308 310 311 310 309 309 309 311 314 315 312 307 306 306 305 304 303 302 300 299 299 299 299 299 300 300 300 302 302 303 304 305 306 307 308 308 308 310 312 312 312 313 315 316 317 319 320 322 324 325 327 330 332 334 335 336 336 337 337 336 336 337 336 336 336 336 336 335 336 335 334 333 332 330 327 327 327 328 328 328 328
321 324 325 325 324 321 318 316 315 312 310 309 308 308 308 308 308 308 308 308 308 308 308 308 308 313 315 310 308 307 305 304 302 301 299 298 298 298 298 299 300 300 301 301 301 303 303 305 306 307 308 308 308 309 310 311 311 312 314 315 316 316 318 319 321 323 325 327 328 330 333 335 335 336 336 335 335 336 336 336 336 336 335 335 336 336 334 334 333 329 326 325 325 326 327 327 326
320 322 324 324 322 319 317 314 312 310 309 307 307 307 308 308 307 308 307 307 307 307 306 307 308 310 312 308 307 307 304 303 301 300 298 298 298 298 298 299 300 300 301 300 300 302 303 304 305 306 307 307 308 308 309 310 311 312 313 314 315 315 316 317 318 320 322 324 326 327 330 333 334 336 336 335 335 335 336 337 336 336 335 334 335 336 334 334 334 330 325 325 325 326 326 325 323
320 320 324 323 320 319 316 314 311 309 308 306 307 307 307 307 307 307 307 307 306 306 305 306 308 308 308 308 307 306 304 302 300 299 298 297 298 299 299 300 300 300 301 299 300 301 302 304 305 305 306 306 307 308 307 308 310 311 312 312 313 314 314 315 317 317 319 321 323 325 327 330 332 334 335 335 335 335 336 336 336 336 335 334 335 335 335 334 334 332 328 324 324 326 325 322 321
321 321 325 323 320 319 316 313 311 309 308 306 306 306 307 307 308 307 306 307 306 306 305 306 307 306 307 308 307 305 304 302 300 299 298 298 299 300 299 300 300 300 300 299 299 300 302 303 304 304 305 306 306 306 307 307 308 310 311 311 311 313 313 314 315 315 317 318 320 322 324 328 331 333 334 335 335 336 336 336 336 335 335 335 335 335 335 334 333 333 331 326 323 323 323 321 319
323 322 323 321 318 317 315 313 311 310 308 306 305 306 307 306 306 307 306 305 305 306 304 305 305 306 307 307 307 306 304 302 300 298 298 299 300 300 299 299 298 299 299 298 298 300 301 302 302 303 303 304 305 306 306 307 307 308 310 310 310 311 312 312 312 313 314 317 319 320 323 326 330 332 333 334 335 335 335 335 334 334 335 335 335 334 335 334 333 333 332 330 325 322 321 319 320
324 324 321 319 318 316 315 313 312 311 308 306 305 305 305 306 305 306 306 305 304 305 305 305 305 306 306 305 306 305 304 302 300 299 299 300 300 300 299 298 298 299 299 298 298 299 300 301 301 301 302 303 303 304 305 305 306 307 308 309 309 310 310 310 310 311 312 315 318 319 321 323 326 330 333 334 334 335 335 335 334 333 334 334 333 333 334 334 334 333 332 332 328 325 324 321 323
322 323 321 320 319 316 316 315 313 311 308 305 305 306 305 305 306 305 305 305 304 304 305 306 305 306 305 305 306 304 303 302 300 300 300 300 299 299 299 298 297 298 298 297 297 298 299 301 301 301 301 302 302 303 304 305 305 305 307 308 307 308 309 309 309 309 310 313 316 317 319 321 324 327 331 333 333 334 334 334 334 333 332 331 332 332 333 334 334 333 332 332 330 327 326 325 326
321 322 320 319 318 317 316 315 312 310 307 305 304 306 305 304 306 305 304 305 305 305 305 306 305 305 305 305 305 303 303 302 301 301 300 300 299 298 298 297 297 297 297 297 297 297 299 301 300 300 301 301 301 302 304 305 305 304 306 306 306 307 308 308 308 308 309 310 313 316 317 320 322 324 329 332 333 333 333 334 334 333 332 330 329 329 332 333 333 334 333 332 330 327 326 326 327
319 321 320 318 316 315 313 313 311 309 306 305 305 306 306 305 305 304 305 306 305 305 306 306 305 305 304 304 304 303 303 302 301 301 300 299 299 298 298 297 297 297 296 296 297 296 298 300 300 299 300 301 301 302 303 304 304 304 305 305 305 306 306 307 307 307 307 307 310 313 315 318 320 322 327 330 332 333 333 333 333 333 332 328 325 325 329 332 333 333 333 332 331 330 327 327 328
317 319 317 314 312 311 309 310 309 308 306 305 306 306 307 306 305 305 305 306 306 306 306 305 305 305 304 304 304 304 303 302 301 300 299 299 298 298 297 297 297 296 296 296 296 295 297 299 299 298 299 300 301 301 303 303 303 303 304 304 304 304 304 305 305 306 306 306 307 309 312 315 317 320 324 327 330 332 332 332 333 332 330 328 324 323 326 329 332 332 333 332 331 331 330 329 329
316 316 312 310 309 308 308 308 308 307 306 305 305 306 306 305 306 306 306 306 306 306 306 306 306 305 305 305 305 304 303 302 300 299 300 299 299 298 297 297 297 297 296 296 296 295 296 299 298 297 298 300 300 301 302 303 303 303 303 303 303 303 303 303 304 304 304 304 305 306 308 310 312 316 321 323 327 330 330 331 332 332 331 330 325 323 325 327 331 333 333 332 331 331 330 329 329
312 312 310 309 307 307 307 307 307 307 305 305 305 306 305 304 306 306 306 307 307 307 306 306 306 305 305 305 304 304 304 302 300 300 299 299 299 298 298 298 298 297 296 296 295 294 296 298 298 297 298 299 300 300 301 303 304 303 303 303 302 302 302 302 302 302 302 303 303 304 305 306 307 312 318 321 325 328 329 330 332 333 332 331 327 322 323 327 331 332 333 332 331 331 330 329 330
309 309 307 307 307 306 306 306 306 306 306 306 305 305 305 305 306 306 307 307 307 306 305 306 305 305 305 304 304 304 303 302 300 300 299 299 299 298 298 298 298 296 296 295 295 294 295 297 298 297 297 299 300 300 301 302 303 303 302 302 302 301 301 301 301 301 302 302 302 303 304 305 305 309 315 319 322 326 329 331 332 333 332 332 329 324 324 326 330 331 332 332 331 330 329 329 330
308 307 306 306 306 305 305 305 305 305 306 306 305 306 304 305 306 305 306 307 307 306 305 305 305 304 304 304 304 304 302 301 300 300 299 299 299 298 298 298 297 296 295 295 295 294 294 296 297 297 296 297 299 299 299 301 302 302 302 302 301 301 300 300 300 300 300 301 301 302 303 304 305 306 311 317 320 325 328 330 331 332 333 331 330 329 328 328 330 331 331 332 331 330 328 329 329
307 306 306 306 306 305 305 304 304 305 306 306 306 306 305 305 305 306 306 306 306 305 305 305 304 304 304 304 304 303 302 301 300 299 299 299 298 298 298 297 297 296 295 295 294 294 294 295 296 296 296 297 298 298 299 300 301 302 302 301 301 300 300 300 299 299 299 299 300 301 302 303 304 304 309 314 318 322 325 328 330 331 333 331 330 331 330 330 330 331 331 331 331 330 329 328 326
307 306 306 306 305 305 304 304 304 305 306 306 306 305 305 306 305 305 305 305 305 305 305 305 304 304 304 304 304 303 302 301 300 299 299 299 298 298 297 297 296 296 295 294 294 294 294 294 296 296 295 296 297 298 298 299 300 301 301 301 300 300 300 299 299 298 298 298 299 300 301 302 303 303 306 311 314 318 323 325 327 329 332 332 332 331 330 329 329 329 329 331 331 330 329 326 324
306 306 305 305 305 305 304 304 305 305 305 305 305 305 305 306 305 305 305 305 305 305 305 305 305 305 305 304 303 303 302 301 300 300 299 298 298 297 297 297 296 296 295 294 294 293 293 294 295 295 295 296 296 297 298 299 300 299 300 300 300 299 299 298 298 297 297 298 298 299 300 301 302 303 304 309 312 315 320 323 325 326 328 329 330 330 330 330 328 328 328 330 330 328 328 326 323
306 305 305 305 304 305 304 305 306 305 305 305 306 306 305 304 305 305 305 305 305 305 305 305 305 305 305 304 303 302 302 301 301 300 299 298 298 297 297 297 296 296 295 294 294 293 293 294 294 293 294 296 296 296 297 299 299 298 299 299 299 298 298 297 296 296 297 297 297 298 299 300 301 302 303 308 312 315 318 322 324 325 325 325 326 326 327 328 329 329 330 331 329 327 327 325 323
306 305 305 305 305 305 305 305 305 306 306 307 307 305 304 305 305 305 305 305 305 305 305 305 306 305 304 303 303 303 302 301 301 300 299 298 298 297 297 297 296 295 295 294 294 293 293 293 293 294 295 295 295 296 297 298 298 297 297 298 298 297 296 296 295 296 296 296 297 297 298 299 300 302 304 307 312 316 319 321 323 325 325 323 323 325 325 325 328 330 330 330 327 326 326 325 323
306 306 305 305 305 305 305 304 304 305 305 307 308 305 304 305 306 305 305 305 305 305 306 306 306 305 304 304 303 303 303 302 301 300 299 298 297 297 297 296 296 295 295 294 293 292 292 293 294 294 294 294 294 295 296 298 297 295 296 297 296 296 295 295 295 295 295 296 296 296 297 298 300 303 305 308 313 317 320 322 324 324 324 324 323 325 325 326 329 330 330 329 327 326 326 324 322
305 306 306 305 306 305 305 305 304 305 304 305 306 306 308 308 306 305 304 305 305 305 306 306 306 305 305 304 304 304 303 302 301 300 299 299 298 297 297 296 296 295 295 294 293 292 292 294 294 294 294 293 293 295 295 297 296 294 295 295 295 294 294 294 294 294 295 296 296 296 297 298 300 303 305 309 315 320 323 324 324 323 323 324 324 325 327 328 328 329 329 329 327 325 325 323 321
306 306 306 305 306 306 306 305 305 306 305 304 304 305 309 309 306 304 305 305 305 306 306 306 305 305 305 304 304 303 303 303 302 300 299 299 298 298 297 296 296 295 294 294 293 293 292 294 294 293 294 293 293 294 295 297 297 295 293 295 296 295 294 293 293 294 294 295 295 296 297 298 300 303 306 311 315 320 324 324 324 324 324 324 325 326 328 328 328 328 328 327 326 324 323 320 320
307 307 307 307 308 306 306 306 305 305 305 304 304 307 309 306 305 304 305 305 305 306 306 306 305 305 305 304 304 304 303 303 302 301 300 299 299 298 297 296 296 295 294 294 294 293 293 293 293 293 293 293 292 293 295 295 296 295 293 294 295 295 295 293 292 293 295 296 295 296 297 299 301 304 306 310 315 319 320 321 322 324 323 323 324 324 325 327 326 326 325 324 322 322 319 316 317
308 310 309 311 313 308 305 306 306 305 305 304 304 308 308 305 305 305 305 305 304 305 306 306 305 305 305 305 304 304 303 303 303 302 301 300 299 298 297 297 296 295 294 294 294 293 293 292 292 292 293 293 292 293 294 294 293 294 293 292 293 294 295 294 293 293 295 296 296 296 297 299 302 304 307 310 315 317 317 318 319 320 319 319 319 319 322 326 325 323 322 321 319 318 317 314 313
310 314 314 315 315 309 306 305 306 305 305 305 305 308 308 306 306 305 305 305 305 305 306 306 305 304 305 304 304 304 304 304 303 302 302 301 300 299 298 297 296 295 294 294 294 293 293 292 292 293 293 293 292 292 294 293 292 292 292 291 291 293 295 295 294 293 294 296 296 297 298 299 302 304 306 310 313 315 316 317 317 318 318 317 318 320 322 324 323 320 317 318 316 314 313 310 309
313 317 316 316 314 310 308 305 305 305 306 306 306 307 307 306 306 305 305 305 305 305 305 305 305 304 304 304 304 304 305 304 303 302 302 302 301 300 298 297 296 296 295 294 294 293 293 293 293 293 292 293 292 292 293 293 291 291 291 291 290 291 294 294 294 294 293 295 297 297 298 299 302 305 307 309 312 313 314 315 316 319 319 318 319 320 321 320 320 319 314 313 314 312 310 307 305
317 317 316 313 311 311 310 307 305 305 306 306 306 306 307 307 306 306 306 305 305 305 305 305 305 305 305 304 304 304 305 305 304 303 303 303 302 301 299 298 297 296 296 295 294 294 293 293 293 293 292 292 293 292 292 292 290 290 291 291 290 290 292 293 292 293 293 294 296 297 299 301 302 304 308 311 313 314 315 315 316 317 318 317 316 315 316 316 316 317 312 308 307 307 306 305 303
315 316 315 313 311 311 310 308 305 304 305 306 307 307 307 307 306 306 306 305 304 304 305 305 305 305 304 304 304 304 305 305 304 303 303 302 302 302 301 299 297 296 297 296 295 294 294 293 293 293 292 292 293 292 291 292 291 291 291 291 291 290 291 292 291 291 292 293 294 295 297 300 302 305 310 313 315 315 315 315 315 316 316 315 315 313 312 312 312 312 310 307 305 304 304 304 303
312 313 313 313 312 311 309 307 305 304 305 306 307 308 307 307 307 306 306 305 305 305 305 306 306 306 305 305 305 305 305 304 303 303 302 302 301 302 302 301 298 297 297 296 296 295 294 293 293 293 292 292 293 292 291 292 292 291 292 292 292 291 291 291 291 291 291 292 294 297 298 300 304 309 311 313 312 312 312 311 312 313 314 313 313 312 310 309 310 310 309 308 306 303 303 304 304
310 311 312 312 312 311 308 306 305 304 306 308 308 308 307 308 308 307 306 305 305 306 306 305 306 306 305 305 305 305 305 304 303 303 302 302 301 301 301 301 300 299 298 297 297 296 295 294 293 293 292 293 293 292 291 292 293 292 292 293 292 291 291 290 290 290 291 291 293 299 302 302 305 309 310 310 311 310 309 309 309 310 311 312 310 309 309 308 307 307 306 305 305 301 301 302 303
309 311 312 312 313 311 308 306 305 305 307 308 308 308 308 308 308 307 306 305 305 306 305 305 304 304 305 305 305 305 304 304 303 303 302 302 301 301 300 301 301 299 298 298 298 297 296 294 294 293 292 293 293 291 290 292 293 292 292 293 293 292 291 290 290 290 291 291 290 293 297 298 301 304 305 307 309 310 309 308 307 307 308 309 309 307 307 307 305 305 304 303 303 301 300 300 301
310 312 313 314 313 311 310 307 305 305 306 308 308 308 307 307 308 307 306 305 306 307 305 305 304 304 304 304 304 305 306 306 304 303 302 302 301 301 300 300 301 300 299 298 298 298 296 295 294 293 293 293 293 290 290 291 292 292 292 293 293 292 291 290 290 290 290 291 290 290 292 294 297 301 303 304 306 308 308 307 306 305 304 305 306 306 304 304 303 303 304 304 303 301 300 300 302
311 312 313 313 311 310 311 308 305 305 306 307 307 307 306 307 308 307 306 306 307 308 306 305 305 304 304 304 304 305 305 306 305 303 302 302 301 301 300 300 300 300 300 299 299 298 297 295 295 294 293 294 293 291 290 291 292 291 291 293 292 291 291 290 290 290 290 290 290 290 290 292 295 298 302 303 305 306 306 306 305 304 304 303 304 303 303 302 302 302 302 303 302 301 300 300 302
312 309 309 309 306 306 307 307 306 307 307 307 307 310 311 310 309 307 307 306 307 307 307 306 306 305 305 305 306 306 305 305 305 304 302 301 301 301 300 300 300 300 300 300 299 298 296 296 296 295 293 293 293 292 290 290 291 291 291 292 292 291 291 291 290 290 290 290 290 290 289 290 292 295 298 301 302 303 303 304 304 305 304 304 304 303 302 301 301 301 300 301 301 301 301 300 299
313 307 305 305 304 303 305 307 309 313 313 308 307 315 318 312 309 309 307 306 306 307 307 306 305 305 305 305 305 305 305 305 304 303 302 301 301 301 300 300 299 300 300 300 299 297 296 296 296 296 294 293 293 293 291 290 291 291 291 292 292 292 291 292 291 291 290 290 289 290 290 290 290 291 293 295 297 298 299 301 303 304 304 304 303 302 302 301 301 302 301 301 301 301 302 300 299
314 307 304 304 304 304 306 307 311 317 317 309 307 313 318 314 310 310 308 306 307 308 307 307 305 305 305 305 305 305 304 304 304 303 302 302 301 301 300 300 299 299 299 299 298 297 297 296 296 296 295 294 293 293 292 291 290 291 292 291 291 292 291 292 292 291 291 290 289 290 289 290 290 290 291 291 292 293 294 297 299 301 302 303 303 302 301 301 302 301 301 302 302 302 302 301 300
314 307 303 305 304 305 307 308 311 314 313 311 310 311 314 317 313 310 308 308 309 309 308 307 306 305 305 305 305 305 304 304 305 305 303 302 302 301 300 300 299 299 299 299 298 298 297 297 296 296 296 295 294 293 292 292 290 290 292 291 290 291 291 291 292 290 291 290 290 290 289 290 290 290 290 290 291 291 291 292 293 295 297 299 301 302 302 302 302 301 300 300 300 300 301 301 300
310 305 304 305 304 305 307 309 311 312 312 314 312 310 314 319 314 308 308 308 309 310 308 307 306 306 305 305 305 305 305 304 303 304 303 302 302 301 301 300 299 299 300 299 298 298 298 297 297 297 297 296 295 294 293 293 292 291 291 291 290 290 290 291 292 290 290 290 290 291 290 289 290 290 290 290 291 291 290 290 291 291 292 294 295 297 299 300 301 301 300 299 299 299 300 300 299
307 304 305 305 304 306 307 309 311 311 315 317 311 308 313 318 315 310 309 309 309 309 308 307 306 306 305 305 305 305 304 304 303 302 302 302 302 302 301 300 300 300 300 299 299 298 298 298 298 297 297 297 296 295 294 294 293 292 291 290 289 290 289 290 291 291 290 290 290 291 291 290 289 289 290 290 290 290 291 291 291 291 291 291 292 292 293 295 296 298 299 299 298 298 298 298 297
306 306 307 307 307 307 308 309 309 313 320 316 308 307 309 314 316 313 311 310 308 308 307 307 307 306 306 306 306 305 304 304 303 302 302 302 302 302 301 301 300 300 299 300 300 299 298 298 297 298 297 297 297 297 296 295 294 293 292 291 290 290 290 289 290 291 291 291 290 290 291 291 290 289 289 289 290 290 290 290 290 291 290 290 291 291 291 291 292 293 295 296 297 296 296 296 296
306 307 308 312 314 311 311 311 310 318 325 314 307 306 307 314 315 310 308 308 307 307 306 306 306 306 306 306 306 305 304 305 304 303 302 302 303 302 302 301 301 300 299 300 300 300 299 298 297 298 297 297 297 297 297 296 295 294 293 292 291 291 291 290 290 291 291 290 290 290 290 291 290 289 288 289 289 289 290 290 290 290 290 290 291 290 290 290 290 291 292 293 293 293 293 294 294
308 309 311 319 324 319 319 320 319 322 322 311 306 307 310 315 312 307 307 307 306 307 306 306 306 305 306 306 305 305 305 305 306 306 304 302 303 303 302 302 301 300 300 299 299 299 299 298 297 297 297 297 297 297 297 297 296 295 294 293 292 291 291 291 290 291 291 290 290 290 290 290 290 289 288 288 288 289 289 289 289 290 290 290 290 290 290 290 290 290 290 290 290 291 291 291 291
311 312 314 322 324 323 324 325 323 325 320 309 304 308 315 316 311 307 307 306 305 306 306 306 305 305 305 306 306 306 307 307 307 307 305 303 303 303 302 302 302 301 300 300 299 299 299 298 297 297 297 297 298 297 297 297 297 296 295 294 293 292 291 291 291 291 291 290 290 290 290 290 290 290 289 288 288 288 288 288 289 289 289 289 290 290 290 290 290 290 290 290 290 290 290 290 290
311 309 311 318 317 318 323 323 324 326 322 313 307 310 317 316 312 308 306 306 305 305 305 305 306 306 307 307 307 307 308 307 307 307 304 303 303 303 302 302 302 301 301 300 300 299 299 298 298 297 297 298 298 298 297 297 297 297 296 296 295 294 293 292 291 291 291 291 291 291 290 290 290 290 289 288 288 288 288 288 288 288 289 289 289 289 290 290 290 290 290 290 290 290 290 290 290
312 309 312 316 312 311 317 319 317 316 317 318 316 317 317 312 309 307 305 306 305 305 306 305 306 307 307 307 308 308 308 307 307 308 305 303 303 303 302 302 302 302 301 301 300 300 299 299 298 298 297 297 297 297 297 297 297 297 297 296 296 295 294 294 293 292 291 291 291 291 291 291 290 290 289 289 288 288 288 288 288 288 288 288 289 289 289 289 290 290 290 290 290 290 290 290 291
312 312 314 311 305 306 314 317 311 309 316 323 319 318 317 311 309 307 305 306 305 305 306 305 306 307 306 308 310 310 309 308 308 308 305 302 302 303 303 302 302 302 302 301 301 300 300 299 299 298 297 297 297 297 297 297 297 297 297 297 296 296 295 295 295 294 293 292 291 291 290 290 291 291 290 290 290 289 289 288 288 288 288 288 288 288 288 289 289 290 290 290 290 290 290 290 290
311 313 310 306 305 307 311 316 315 315 321 322 317 317 317 317 314 309 306 307 307 306 306 305 307 307 307 308 309 309 308 308 308 306 303 302 303 303 302 302 302 302 302 301 301 300 300 299 299 298 297 297 297 297 297 297 297 297 297 297 297 296 296 295 295 295 294 293 292 292 291 291 290 290 290 290 290 290 290 289 289 288 288 288 288 288 288 288 289 289 289 290 290 290 290 290 290
308 309 305 306 312 314 313 315 317 318 320 321 319 317 317 318 315 310 309 310 308 307 307 307 306 307 307 307 308 308 308 308 308 307 304 302 302 303 302 302 302 302 301 301 300 300 300 299 299 298 298 297 297 297 297 298 297 297 297 297 297 297 297 296 296 295 295 294 294 294 293 292 291 290 290 290 290 290 290 290 289 289 289 289 288 288 288 288 288 288 289 289 289 290 290 290 290
306 307 306 307 311 312 313 312 313 316 318 320 322 320 318 315 312 310 310 310 308 307 307 308 307 307 307 307 307 308 309 308 308 309 305 301 302 303 302 302 302 301 301 300 300 300 299 300 299 299 298 298 298 297 297 297 297 297 297 297 297 297 297 297 297 296 295 295 295 294 294 294 293 291 291 290 290 290 290 290 289 289 289 289 289 288 288 288 288 288 288 288 289 289 289 289 290
308 310 309 309 309 308 309 310 308 311 315 316 318 320 319 313 309 309 308 308 309 309 308 309 310 308 307 307 308 308 309 309 309 309 305 301 302 302 302 302 302 301 301 300 300 300 300 300 300 299 299 299 298 298 297 297 297 297 297 297 297 297 297 297 297 296 296 296 295 295 295 294 293 293 292 291 291 290 290 290 289 289 289 289 289 288 288 288 288 288 287 288 289 289 289 289 289
306 308 308 308 309 309 313 314 309 308 311 312 313 316 318 312 308 308 307 307 308 308 309 310 310 308 307 307 308 308 309 309 309 308 303 301 302 302 302 302 302 301 301 300 300 300 300 300 300 300 300 299 299 299 298 298 298 297 297 297 297 297 297 296 296 296 296 296 296 296 295 295 294 294 293 292 292 291 291 290 289 289 289 288 288 288 288 288 288 288 287 288 289 289 289 288 288
Wind_Speed
5 2 4 6 7 9 7 4 2 1 2 5 4 3 4 7 8 9 10 5 4 6 5 4 6 6 5 5 7 8 7 6 2 4 1 4 14 16 21 27 26 26 25 24 26 26 25 22 23 29 29 27 26 26 26 25 25 24 21 19 20 18 13 12 14 15 15 15 13 12 12 13 13 13 13 14 13 13 12 11 10 10 8 7 5 5 5 5 4 4 4 4 4 4 5 6 6
3 3 5 6 6 5 2 1 1 1 4 6 5 5 5 7 10 10 10 8 6 5 3 3 5 7 8 8 7 7 6 5 5 4 2 10 16 15 23 26 26 26 24 25 26 25 24 22 23 28 28 26 25 25 25 25 24 24 23 19 19 20 16 12 12 13 15 15 14 13 12 13 14 15 15 15 14 13 13 12 12 12 10 9 7 7 6 6 6 5 5 5 4 4 5 6 6
4 4 7 7 5 4 2 1 1 2 4 5 4 5 7 7 9 9 9 8 7 4 1 1 4 5 4 6 3 4 4 3 7 6 3 13 13 17 26 25 25 24 24 26 26 25 23 23 25 27 27 26 24 24 24 24 24 24 24 21 19 20 19 15 12 11 13 15 15 15 14 14 15 16 17 17 15 14 13 13 14 13 12 10 9 9 8 7 7 7 7 6 5 5 5 5 5
5 5 6 6 3 3 2 1 2 4 5 4 4 5 7 7 8 8 7 7 6 4 2 1 3 5 6 7 4 4 4 3 9 9 5 13 14 20 26 24 24 22 24 26 26 25 24 25 26 27 26 25 24 23 23 23 23 23 22 22 21 20 20 19 16 11 10 12 14 15 16 16 15 16 16 17 17 15 15 15 15 14 13 12 11 11 10 9 9 9 9 8 7 6 5 5 4
8 5 5 5 1 1 1 3 4 5 5 3 4 5 8 8 7 6 6 6 6 6 6 5 3 3 7 8 4 1 4 3 8 12 8 13 17 21 23 22 21 21 23 25 26 25 24 26 26 27 27 25 24 23 23 22 22 22 21 21 21 21 20 20 18 13 11 11 11 14 16 17 16 15 16 16 18 17 16 17 17 15 15 14 13 12 11 10 11 11 11 10 9 8 6 6 5
10 4 5 4 1 1 2 5 5 6 6 5 5 5 8 7 7 6 6 6 6 8 7 7 4 5 6 5 6 4 3 3 6 11 11 15 18 20 20 19 19 19 22 24 25 25 26 27 26 27 27 26 24 23 23 22 21 21 20 20 21 21 21 21 19 17 14 11 11 12 14 16 17 16 15 15 16 16 16 17 16 15 16 15 14 14 13 12 12 12 12 12 10 9 8 7 6
10 4 2 1 2 2 5 6 6 5 6 8 7 6 8 7 7 7 7 5 6 8 7 7 5 4 4 3 6 5 6 8 7 9 13 15 17 20 18 18 18 19 22 23 25 25 26 27 27 27 27 27 26 24 23 22 21 20 20 20 20 21 21 21 20 19 17 14 13 13 12 14 17 17 15 14 14 14 15 15 15 15 15 15 15 15 13 13 12 12 12 12 11 10 9 8 7
7 3 0 2 4 4 6 7 6 5 6 8 7 7 8 7 6 6 8 7 6 7 7 8 8 2 4 4 4 4 8 12 10 10 14 16 18 19 18 18 18 20 23 24 26 26 26 27 27 27 27 27 27 25 23 23 21 20 20 20 20 20 21 20 20 19 18 17 17 16 13 12 14 16 16 15 15 15 15 15 14 14 15 16 16 15 14 14 13 12 12 12 12 11 10 10 8
5 1 1 3 5 5 6 6 7 6 6 7 7 8 7 7 6 7 8 7 6 6 9 9 8 5 3 8 6 4 9 14 13 13 16 18 19 19 19 19 19 22 23 25 28 26 26 27 26 27 26 26 27 26 25 24 21 20 20 20 20 20 20 20 21 20 18 18 18 17 15 12 12 14 15 16 17 17 16 15 15 15 16 16 16 17 17 16 14 13 12 12 12 11 11 11 9
2 0 1 3 5 6 6 5 5 5 7 7 7 9 7 6 6 8 7 8 8 7 11 10 5 8 5 6 6 4 10 15 16 17 19 20 20 19 21 20 19 22 22 26 27 25 27 28 26 26 26 27 26 26 26 25 22 21 20 20 20 20 20 20 20 20 19 19 19 18 16 14 11 11 12 18 20 18 17 16 15 15 16 15 16 18 18 17 15 14 13 13 12 12 12 11 9
0 1 1 3 4 6 5 5 5 5 6 6 6 8 6 6 6 7 7 8 8 8 11 10 5 8 7 5 4 5 14 19 19 20 21 21 21 20 21 21 20 20 20 24 25 24 27 29 27 27 27 27 26 26 26 24 23 22 21 21 22 21 20 20 20 20 19 19 19 19 17 16 13 10 9 16 21 20 19 18 16 16 16 15 15 16 18 18 17 16 14 14 13 13 13 12 11
1 2 4 5 5 5 5 6 5 5 6 5 6 6 5 6 7 7 7 8 8 8 9 9 5 6 5 4 2 8 18 21 19 20 21 22 22 21 20 20 20 19 19 23 23 22 26 28 28 28 28 27 26 25 24 24 24 23 21 22 23 22 20 21 20 19 19 19 20 19 19 18 17 14 10 13 19 21 21 20 19 17 15 15 15 16 18 18 18 18 16 15 14 14 13 13 12
3 4 5 5 5 5 6 5 5 6 5 4 5 5 5 6 7 7 6 7 8 7 7 8 6 4 4 3 2 10 16 19 19 20 20 21 21 20 19 19 19 18 19 23 23 22 27 28 27 29 28 27 28 26 24 24 24 23 22 22 23 22 22 21 21 20 19 19 19 18 19 19 18 17 15 14 16 21 23 22 20 19 17 15 15 16 17 18 18 19 18 16 15 14 13 13 12
3 3 4 5 4 5 5 4 5 4 3 4 3 3 5 5 5 6 6 6 7 6 4 6 8 4 4 3 3 6 11 17 18 18 20 20 20 18 17 17 18 18 19 23 22 22 27 28 28 29 28 28 30 28 25 26 28 25 22 23 23 22 22 22 22 21 19 18 18 18 18 19 19 19 19 17 17 19 23 23 22 21 18 15 15 16 16 17 18 20 19 18 16 14 14 13 12
4 3 4 5 4 5 3 2 6 5 3 4 2 2 5 4 4 5 6 4 5 4 3 6 9 3 3 4 3 5 11 17 16 16 18 19 19 17 16 16 17 18 20 23 22 22 27 28 28 30 29 29 30 29 25 26 30 27 23 23 23 22 22 22 22 22 21 19 18 17 17 18 19 20 19 19 18 18 21 24 25 22 20 18 15 15 16 16 18 19 19 19 17 15 15 14 13
3 2 3 5 4 4 3 3 5 5 3 3 2 2 2 5 4 4 3 3 3 3 3 5 7 3 3 4 4 7 12 14 13 14 16 18 18 17 16 16 17 18 20 24 22 23 27 27 29 30 30 30 31 30 25 24 27 26 23 23 23 22 22 22 22 22 22 22 20 18 17 17 18 19 19 21 21 20 20 24 26 23 22 21 18 17 17 17 18 19 20 19 17 15 15 14 14
1 2 5 5 5 5 4 5 3 4 4 3 3 3 1 5 2 3 1 4 1 3 4 3 3 5 4 3 4 9 12 12 12 13 16 18 18 18 18 17 19 19 22 24 21 24 27 27 29 31 31 30 31 30 26 24 26 25 24 24 24 23 23 23 22 21 22 23 22 20 19 17 16 17 19 21 22 20 19 24 27 25 23 23 22 22 21 18 18 18 19 19 18 17 16 16 15
2 3 6 5 4 4 4 5 4 5 5 4 3 4 4 4 2 2 2 2 3 3 5 3 4 7 7 7 8 10 11 11 12 13 15 17 18 19 19 20 21 21 24 25 23 25 27 27 29 31 31 30 31 31 26 24 26 26 24 23 25 24 23 23 22 22 22 23 22 22 21 19 18 17 18 20 21 18 16 22 26 26 25 25 24 24 23 20 18 17 19 19 19 18 17 18 17
6 4 5 5 4 4 4 6 6 5 5 5 4 4 5 4 4 3 2 3 5 4 6 5 4 7 8 10 11 11 11 10 12 13 14 15 17 18 18 21 21 21 24 25 25 26 26 26 28 31 31 30 31 31 27 25 27 28 24 23 24 24 24 22 22 22 22 22 22 23 22 21 21 19 17 19 21 19 16 18 23 25 28 27 25 25 24 21 19 18 18 19 20 19 18 20 19
6 5 5 4 4 6 6 7 7 6 4 5 4 3 5 4 4 3 4 3 4 6 5 5 6 7 7 10 12 12 10 11 13 13 14 15 15 16 17 19 19 21 23 23 24 27 26 26 28 30 30 30 31 31 29 26 27 27 25 24 23 24 24 21 22 23 22 21 22 23 22 22 22 20 17 17 20 21 20 19 21 25 27 28 26 24 24 23 21 18 17 17 20 19 19 22 21
5 5 6 5 5 6 6 7 7 6 4 4 3 1 4 3 3 5 6 3 3 6 5 5 6 6 7 8 11 12 11 13 14 13 14 14 14 16 16 17 17 19 20 21 23 25 25 24 27 30 29 29 30 30 31 28 27 27 27 26 24 24 23 21 21 21 21 22 23 22 21 21 21 21 18 16 17 21 22 20 22 25 25 28 27 25 24 24 21 19 18 18 19 18 21 24 22
5 7 8 6 6 6 6 6 5 5 3 3 2 2 3 1 2 5 7 5 3 4 4 4 4 6 6 8 10 10 11 11 12 13 14 14 14 15 16 17 16 18 20 21 23 25 24 24 26 28 28 28 29 30 30 28 27 28 28 27 25 24 21 20 20 20 23 25 24 22 21 21 21 22 20 16 16 19 23 20 20 26 28 28 27 25 24 23 21 19 18 18 17 18 22 22 21
6 7 8 8 7 6 6 5 3 4 3 4 4 3 2 1 3 3 5 6 3 3 3 4 4 6 9 9 8 8 8 8 9 11 12 12 14 15 16 16 16 19 20 20 23 24 24 25 26 27 27 27 28 30 29 27 26 28 28 26 26 24 21 20 20 21 25 26 22 21 21 21 21 23 22 18 16 17 21 21 19 21 25 26 24 22 22 23 21 20 19 17 16 19 22 20 19
8 8 7 8 8 7 6 4 2 3 4 5 2 1 2 3 2 1 4 4 3 3 3 4 5 8 9 7 7 8 8 8 9 10 9 10 12 13 15 15 16 19 20 21 23 25 24 25 26 27 27 26 28 29 29 27 26 28 28 26 26 24 22 22 21 22 25 24 22 21 21 22 23 24 23 20 18 17 18 20 18 16 17 18 18 17 18 20 20 21 19 17 17 20 21 19 19
9 8 6 7 7 6 5 4 4 3 4 3 2 0 3 4 2 2 3 4 3 3 3 4 6 8 5 5 6 7 8 9 10 10 10 11 11 11 13 13 15 19 19 21 24 24 25 25 25 26 26 26 27 28 28 25 26 30 29 27 26 23 22 23 23 22 23 23 22 22 22 23 24 24 23 21 19 18 16 16 17 19 18 15 14 15 17 16 18 20 19 17 17 18 19 20 20
6 8 7 7 6 5 4 4 4 3 3 2 2 2 2 2 1 2 3 3 2 2 4 4 5 4 3 4 6 7 7 9 10 10 11 12 12 11 12 13 14 18 18 19 23 24 24 24 24 25 24 24 25 26 26 24 27 32 30 27 26 24 22 22 22 22 23 23 22 22 22 23 23 23 23 21 19 19 17 15 17 20 22 20 17 18 19 17 16 16 17 17 16 15 18 21 22
6 9 8 8 7 4 3 5 4 2 3 3 3 3 2 3 1 1 3 2 1 3 4 3 2 3 3 4 5 6 6 8 8 9 12 13 12 12 12 13 14 17 18 19 22 23 23 22 22 24 23 23 24 24 24 23 26 32 32 27 25 25 23 23 22 21 23 23 23 23 22 23 22 22 22 20 20 19 17 14 15 19 21 20 19 19 19 19 16 14 15 16 16 18 21 22 24
9 10 9 8 7 5 4 5 3 2 2 3 4 2 1 1 1 0 3 1 1 4 5 2 1 2 3 3 4 5 6 8 7 7 10 11 12 13 12 12 13 16 18 19 21 23 23 21 22 23 23 24 24 23 24 23 23 30 35 30 26 28 28 27 25 22 24 23 23 22 21 22 21 21 19 18 18 14 13 14 15 16 16 16 17 16 16 17 15 12 12 15 20 24 24 24 26
8 6 7 8 7 6 3 3 3 2 1 2 2 2 2 2 1 2 2 1 2 5 5 1 1 1 2 2 3 5 7 9 8 6 7 9 10 11 11 11 12 15 17 19 21 23 23 21 22 24 23 25 25 23 24 24 24 28 34 34 31 32 31 29 27 25 25 24 22 21 21 21 20 19 17 16 14 5 8 11 14 13 13 13 13 12 12 12 12 11 12 18 25 27 27 26 27
3 1 4 6 5 4 3 3 2 2 1 1 1 2 1 3 3 3 2 1 3 5 4 1 1 2 2 2 3 4 6 9 8 5 4 8 9 9 10 10 11 13 16 18 21 22 22 21 22 23 23 24 25 24 23 24 25 26 30 34 34 33 33 31 28 27 25 23 21 20 19 19 17 15 15 13 10 11 15 15 14 11 9 9 8 7 7 7 10 13 17 24 28 28 28 26 26
1 2 2 3 1 2 2 4 2 1 2 3 2 1 2 4 4 4 2 1 2 4 4 2 1 2 2 3 4 4 5 7 8 8 8 9 9 9 10 10 10 12 15 17 20 21 20 20 22 23 23 24 25 24 23 23 24 24 26 31 34 35 35 33 30 28 26 23 21 20 19 18 15 14 14 12 11 11 12 14 12 9 5 4 5 6 6 5 10 16 23 28 29 29 29 26 25
2 2 1 3 3 3 2 5 6 3 1 4 2 2 1 4 4 5 3 2 2 4 5 3 1 2 3 3 4 3 5 7 8 10 11 10 9 10 11 10 10 12 14 17 19 20 20 21 21 22 23 24 25 24 22 22 23 24 24 27 33 35 35 35 32 29 27 25 22 20 19 18 16 15 16 16 16 16 15 14 12 9 6 3 3 4 5 9 14 20 24 27 30 30 30 28 27
1 2 2 4 3 2 2 3 6 5 4 4 5 3 2 3 4 6 4 2 2 4 6 3 2 3 2 3 4 3 5 5 7 11 11 10 9 10 11 10 10 12 13 15 17 19 20 20 20 21 22 22 23 23 21 21 23 24 24 26 30 34 35 35 34 32 30 28 24 23 22 20 18 17 20 21 21 21 21 19 16 12 10 8 7 8 10 14 18 22 24 26 29 31 32 31 29
3 3 2 1 2 2 1 1 4 7 6 2 5 4 3 3 5 6 5 3 3 4 5 3 3 3 3 3 4 4 5 4 6 10 11 10 9 10 11 10 10 12 13 15 17 18 18 18 19 20 21 21 21 22 21 21 23 23 23 25 27 31 34 34 35 35 35 32 28 27 27 24 22 21 23 23 23 23 22 20 18 15 13 12 14 14 15 17 19 22 24 24 26 30 33 33 31
4 4 2 1 0 3 3 1 3 6 6 5 4 5 3 1 4 5 6 5 3 4 3 2 2 3 3 4 3 4 5 4 6 10 10 9 9 10 11 10 10 11 13 15 17 17 17 17 18 19 20 20 20 22 21 20 23 24 24 25 27 30 33 34 35 37 38 37 33 31 30 29 28 26 24 23 22 21 21 20 17 16 15 16 18 19 19 19 19 20 22 23 23 26 30 32 31
4 3 2 2 2 2 3 2 2 4 4 5 5 4 4 4 3 4 6 5 3 4 3 1 2 2 2 4 3 4 5 5 7 10 9 9 10 10 11 11 11 10 11 14 16 17 18 17 17 19 19 19 19 21 22 21 23 25 25 26 27 29 31 33 34 36 38 39 38 35 33 33 31 27 24 22 22 22 22 20 18 17 17 19 21 22 21 21 21 22 23 25 27 28 28 29 28
3 4 3 1 2 1 2 3 2 3 3 4 4 4 6 6 6 4 6 4 3 4 2 1 2 1 2 3 3 5 5 6 9 11 10 9 10 12 12 12 11 10 10 14 16 17 18 17 16 18 19 18 18 20 21 20 22 25 24 24 26 27 29 31 32 35 36 37 38 36 34 34 30 26 23 21 21 21 22 21 19 18 17 20 22 23 22 22 23 24 26 27 28 30 29 28 27
4 3 4 2 1 1 1 3 2 3 3 4 3 5 7 6 7 4 7 3 4 1 1 2 3 3 4 4 5 5 4 6 9 11 11 10 11 12 12 11 11 10 12 14 15 16 18 17 15 17 19 18 18 19 20 19 19 21 21 20 21 22 25 27 29 32 34 34 36 35 33 32 31 28 26 22 20 20 20 21 20 18 17 18 21 22 22 22 23 24 25 25 25 28 26 24 18
5 3 4 3 2 3 0 4 2 2 1 4 5 7 8 8 8 4 7 4 2 4 3 1 2 3 5 4 5 5 4 6 6 8 11 11 11 12 12 11 10 11 13 12 13 16 18 18 16 17 17 17 18 19 19 18 17 18 18 17 18 19 20 24 26 28 31 32 34 35 33 32 31 30 29 26 23 20 19 19 19 19 18 18 19 20 20 19 19 19 22 24 24 24 20 12 4
3 3 2 3 4 3 1 2 4 5 2 4 7 7 8 7 5 4 5 4 3 5 3 1 2 2 3 4 4 4 4 5 5 6 9 11 11 11 12 12 10 11 13 12 13 16 18 18 16 17 16 15 16 18 19 18 16 16 17 15 15 14 17 22 26 27 30 31 32 34 34 32 31 30 29 28 26 23 20 17 16 17 17 17 17 17 15 14 15 16 17 20 21 19 13 5 5
3 4 3 2 3 2 3 4 6 6 2 3 6 5 4 4 4 4 3 4 2 3 4 3 4 4 3 5 4 1 3 3 4 5 7 10 10 11 12 11 10 11 11 11 14 17 18 17 16 17 16 14 15 16 17 17 16 16 18 18 18 17 17 21 25 26 28 29 30 31 32 32 31 29 28 27 26 25 23 19 16 15 15 14 14 14 14 13 14 13 12 11 11 12 10 9 12
1 1 2 2 3 4 5 6 6 4 1 2 2 2 3 3 4 4 3 3 3 5 6 5 5 5 5 5 1 3 3 2 3 4 6 9 10 11 12 11 11 11 10 11 14 17 17 17 16 16 16 14 15 16 16 16 16 15 17 19 20 21 20 20 21 21 22 24 25 26 28 29 30 29 27 26 26 24 23 21 19 16 14 13 12 12 13 13 12 10 6 5 5 7 9 12 12
2 3 2 2 3 4 5 5 3 1 2 3 2 3 2 3 2 3 5 3 5 4 6 6 4 3 3 2 2 3 3 3 3 5 6 7 8 10 11 11 11 11 11 12 14 15 16 17 17 16 16 14 14 16 17 15 15 15 15 15 15 16 18 18 17 16 16 17 19 21 22 24 25 26 26 25 25 24 23 22 20 18 16 14 12 12 12 11 10 9 7 5 5 5 8 12 11
2 3 2 4 3 4 4 2 1 1 2 3 3 3 1 3 3 1 4 1 6 2 4 5 4 4 2 1 2 2 2 2 3 5 6 6 6 8 10 11 11 11 11 13 13 13 14 15 17 17 17 15 13 14 16 15 15 14 13 13 12 12 13 14 14 15 14 14 16 18 18 19 20 21 21 22 22 23 22 21 20 19 18 16 13 11 10 9 7 8 9 8 8 6 6 10 9
1 1 2 3 3 3 3 2 3 2 2 2 4 3 1 3 4 2 3 2 4 2 4 5 5 4 3 1 1 1 2 1 2 5 7 7 6 6 9 10 11 10 11 13 12 11 12 13 15 16 17 16 14 13 14 14 14 13 11 12 13 11 11 10 10 12 13 14 15 16 16 16 16 16 17 17 18 19 19 19 19 19 18 17 15 14 11 9 7 6 7 7 7 7 6 8 6
0 1 1 2 2 2 2 2 3 3 2 0 4 3 2 3 4 1 1 3 2 3 4 4 4 4 3 3 2 3 3 1 1 5 8 9 7 6 8 9 10 9 10 13 12 11 11 12 13 15 16 17 16 15 14 13 12 12 11 11 12 12 12 11 9 10 11 13 13 13 14 14 13 13 14 14 14 15 15 16 16 17 16 15 15 15 14 13 10 8 6 5 5 6 7 6 5
3 3 1 2 1 1 1 2 2 1 1 1 2 3 2 1 3 1 2 1 1 2 3 3 2 1 1 1 1 3 3 2 3 5 8 9 9 8 7 8 9 9 9 11 12 12 11 11 11 13 14 15 16 16 16 14 12 12 11 10 10 11 12 12 11 10 10 11 11 11 11 11 12 11 11 11 11 11 12 12 12 12 13 13 13 13 13 12 11 9 8 6 5 6 5 4 4
2 1 2 0 0 0 0 1 1 2 2 2 2 1 1 1 3 1 4 3 4 3 2 4 4 4 4 3 3 3 4 4 4 5 7 8 10 10 8 8 9 9 10 10 11 12 12 12 11 12 12 12 14 16 17 17 15 13 12 10 9 9 10 11 11 11 11 10 9 9 8 8 10 10 9 9 9 9 9 8 9 9 9 10 11 10 10 10 9 9 8 7 6 6 5 3 4
1 2 2 3 2 2 2 2 1 1 2 3 2 1 1 3 3 2 6 5 4 3 2 2 3 4 4 4 4 5 4 5 5 5 6 7 9 10 9 10 10 10 11 11 12 12 13 13 11 11 12 11 12 14 15 17 17 16 14 12 11 9 8 8 8 8 10 9 8 8 7 7 8 10 9 8 8 7 6 6 6 6 7 7 7 7 7 7 7 6 6 6 6 5 5 4 5
4 3 2 3 3 3 3 3 3 1 2 3 3 1 1 2 1 3 5 5 4 3 2 1 1 3 5 5 5 6 6 6 6 5 5 6 9 10 10 10 11 11 12 12 12 13 14 14 13 13 13 11 11 13 14 15 15 16 16 15 15 13 10 9 7 6 7 7 7 6 6 5 5 7 8 7 6 6 5 5 4 4 4 4 4 4 5 5 5 5 4 4 4 4 4 4 4
4 1 1 2 2 2 1 2 2 4 4 3 1 1 1 2 1 3 6 4 3 2 2 3 4 5 6 6 6 6 6 6 5 4 5 8 9 10 11 12 12 13 13 13 13 14 14 15 14 14 14 13 12 13 13 14 13 14 15 16 16 16 15 13 11 9 8 8 7 5 5 4 4 5 7 6 5 5 4 4 3 3 2 2 2 2 2 3 3 3 3 3 3 3 2 3 3
4 2 2 1 1 1 0 0 1 1 3 3 2 2 3 2 1 2 4 2 2 3 4 4 5 6 5 5 6 5 6 5 5 5 6 8 10 10 11 12 13 13 14 14 15 14 15 15 15 15 16 15 14 14 14 14 13 13 13 14 16 16 17 17 16 14 12 11 10 9 7 6 6 6 7 7 6 5 4 4 4 3 2 2 1 1 1 1 2 3 3 3 3 3 3 3 3
2 3 2 1 1 2 1 1 1 2 1 3 2 2 3 2 2 1 2 1 4 5 4 4 5 5 4 5 6 5 6 6 6 6 6 8 10 10 11 12 13 14 15 15 15 15 15 16 17 17 17 17 16 16 16 15 15 14 14 14 15 15 16 18 19 18 16 15 15 14 12 10 9 8 8 8 7 7 7 6 5 5 4 3 3 3 3 3 4 4 4 4 4 4 4 5 5
2 2 1 1 2 3 1 1 2 2 2 3 3 4 4 2 2 3 1 3 6 6 4 3 4 4 3 5 6 5 6 6 6 6 8 10 10 10 11 12 12 14 15 16 16 16 16 17 18 18 19 19 18 17 17 17 17 16 15 15 15 15 16 17 18 19 19 18 19 18 16 15 14 12 11 10 9 10 9 8 8 8 7 6 6 6 5 5 6 6 6 6 6 6 6 6 6
2 0 2 1 2 1 1 0 1 2 3 4 4 4 4 3 2 2 3 6 6 6 5 4 5 4 3 5 6 6 6 6 5 6 7 10 11 11 12 12 13 14 14 16 16 16 17 17 18 19 19 19 18 18 18 18 19 18 18 17 16 16 16 16 17 18 19 20 21 21 20 19 18 16 15 15 13 12 12 11 11 11 10 9 9 8 8 7 8 8 8 8 8 8 9 9 9
3 2 1 1 2 2 1 1 1 0 1 4 5 4 3 2 3 2 3 6 5 5 4 5 5 5 5 5 5 6 6 5 6 6 6 10 12 13 14 14 15 15 16 16 16 16 17 17 17 18 18 18 18 19 19 20 21 21 20 20 19 18 18 17 17 18 20 21 21 22 22 22 21 19 19 19 18 16 15 15 14 14 14 13 12 11 11 10 10 10 10 10 10 11 11 12 11
3 2 2 2 1 1 0 1 0 1 1 2 4 5 5 3 2 1 2 3 4 4 3 5 6 6 6 6 6 6 6 6 6 6 6 10 14 15 15 15 15 16 17 17 17 16 16 16 17 17 17 18 18 19 20 21 21 21 21 21 21 21 20 20 19 19 20 21 21 22 23 23 23 22 22 22 22 21 20 18 17 17 16 16 15 15 14 13 13 13 13 12 12 13 13 13 13
1 1 2 2 1 1 2 2 2 1 1 1 1 5 7 5 2 0 2 2 1 2 4 6 7 7 7 6 6 7 6 6 6 6 8 11 14 15 16 16 15 16 17 17 16 15 16 16 16 16 16 17 18 19 20 21 22 22 22 22 22 22 22 22 22 22 22 23 22 22 23 23 24 24 24 24 25 24 23 22 21 20 20 19 18 18 17 17 17 16 16 16 16 17 17 16 15
Wind_Direction
307 306 325 299 301 303 293 262 246 252 106 71 63 68 62 47 45 43 45 55 56 46 34 57 66 41 55 87 97 97 53 38 51 343 264 314 334 335 340 339 339 341 342 342 338 340 341 341 340 342 349 349 346 345 346 347 347 346 343 338 336 339 337 325 311 296 288 284 286 284 270 260 251 248 250 250 247 240 236 235 235 233 222 222 220 213 200 189 185 179 176 165 155 140 139 133 121
351 9 348 305 293 293 284 165 262 260 105 71 50 43 49 53 49 48 43 41 36 46 36 29 79 82 101 122 128 108 57 72 61 4 254 329 336 334 337 338 338 342 343 340 339 341 341 341 339 343 349 350 346 344 344 345 345 344 342 339 334 334 331 327 324 306 293 286 282 281 276 268 259 251 248 247 248 243 238 237 235 234 229 223 215 215 207 192 187 187 184 173 162 147 150 143 132
17 12 356 313 269 238 254 127 317 327 94 82 65 36 32 46 50 57 51 49 45 56 89 27 73 45 97 118 93 77 56 97 43 12 324 346 343 333 335 337 338 342 342 340 342 343 342 340 342 346 348 349 346 343 343 343 344 343 342 341 336 333 327 321 326 319 303 293 284 280 275 272 264 256 250 244 243 240 239 244 241 231 228 223 213 215 209 198 191 191 188 178 174 166 164 156 149
4 359 343 311 269 220 265 69 15 20 68 80 84 43 34 45 45 63 63 54 47 40 12 31 83 12 47 58 22 89 46 42 36 15 335 348 344 333 333 336 340 341 341 342 344 344 340 342 348 349 347 348 345 342 342 342 343 343 342 341 336 333 329 324 323 320 310 303 294 285 275 271 267 261 256 247 241 238 239 246 247 234 224 217 212 216 208 201 196 193 188 180 181 177 172 163 160
345 337 288 285 292 276 331 58 32 47 42 17 90 57 38 39 29 53 75 68 53 39 16 13 60 47 67 44 6 106 356 343 22 11 347 340 339 333 332 338 339 339 340 342 345 342 340 345 348 348 349 348 344 342 341 341 340 341 341 340 336 333 330 327 323 315 307 302 300 295 281 271 266 262 259 253 245 240 241 248 249 237 225 216 211 213 208 202 199 197 191 183 183 178 173 168 168
326 297 258 266 172 287 46 68 55 64 30 20 78 59 39 32 11 27 70 80 64 48 31 12 27 88 89 56 56 79 15 357 350 2 355 340 337 334 337 340 339 340 340 342 344 341 343 347 344 344 348 347 346 343 340 340 339 339 340 338 336 334 331 328 324 318 305 289 288 295 293 281 266 259 260 259 251 244 244 246 246 235 228 221 213 211 208 203 203 205 197 188 185 179 175 173 179
318 304 246 289 96 33 60 70 67 72 40 40 61 50 39 29 4 21 48 49 51 39 31 17 3 79 106 116 89 85 60 35 5 5 356 342 337 338 342 341 341 341 342 345 344 343 345 345 342 341 343 343 344 341 340 340 338 338 339 338 336 334 333 328 324 319 308 295 290 290 296 294 275 263 263 264 258 250 246 242 241 238 233 226 217 210 209 208 206 207 204 197 191 183 177 178 189
299 312 350 61 67 53 65 72 65 70 62 57 57 49 36 25 11 34 45 31 38 30 24 8 343 21 115 112 94 92 58 31 18 6 353 346 341 344 345 343 343 341 345 348 345 346 347 343 341 340 340 341 341 340 339 338 338 337 338 338 336 334 333 329 325 320 311 302 300 296 291 299 291 270 258 256 253 247 246 243 239 238 236 230 223 213 209 212 211 210 207 202 198 189 182 189 200
257 287 349 80 83 80 76 82 71 68 68 62 57 47 31 23 19 36 50 43 34 32 28 352 339 13 71 88 83 92 52 23 14 3 355 349 344 345 343 345 345 340 346 347 347 349 347 343 340 339 339 339 339 339 339 339 338 337 337 336 334 333 332 330 327 322 312 301 298 300 291 291 300 284 258 246 247 244 243 244 238 235 236 233 224 217 213 209 211 215 210 203 201 194 191 200 209
240 137 294 108 101 94 80 83 79 81 73 66 55 39 23 17 30 38 43 50 38 36 21 341 2 18 352 84 89 84 48 21 12 2 355 349 346 345 341 346 343 341 344 345 350 350 348 346 342 341 339 338 338 338 339 340 338 336 335 335 334 332 331 330 328 324 317 304 295 297 292 281 286 295 270 245 242 239 238 239 237 234 233 231 224 222 218 209 207 211 210 207 203 201 204 208 209
222 303 11 93 84 86 83 95 88 97 87 77 58 32 17 15 29 41 39 43 40 46 19 350 29 2 337 73 114 91 43 19 13 360 350 348 347 344 341 343 341 344 342 343 349 348 349 349 346 344 341 339 337 336 339 339 338 336 333 333 335 332 329 329 328 324 318 309 301 297 288 271 263 275 274 256 244 236 235 233 232 232 229 229 226 225 220 213 208 207 206 209 207 205 213 212 209
62 25 56 68 68 85 92 104 101 102 82 67 56 25 10 29 29 27 43 43 25 45 31 2 6 324 337 60 111 60 32 14 7 354 347 348 346 343 342 341 342 346 341 343 348 346 349 350 350 347 344 342 339 338 337 337 337 337 334 332 333 333 329 327 328 325 317 310 305 300 287 268 256 251 253 264 253 239 235 231 228 227 228 229 228 230 224 217 212 209 205 206 211 208 213 213 208
41 42 71 79 76 100 105 109 122 110 74 52 56 29 19 37 33 9 30 58 29 29 33 360 338 320 2 30 50 38 19 6 356 348 348 347 345 343 343 342 345 346 340 346 348 346 348 350 351 348 346 344 343 340 337 338 337 336 335 332 332 332 331 328 327 325 319 313 307 302 292 277 264 254 245 250 252 243 236 231 227 223 224 227 229 234 229 222 216 213 206 203 208 203 205 207 202
4 38 74 92 84 98 113 132 128 102 75 67 48 31 51 36 24 17 8 54 48 15 45 18 340 319 1 353 37 28 359 353 347 344 347 344 346 346 344 344 346 345 343 348 350 347 347 349 350 349 349 346 346 344 340 337 335 336 334 332 332 331 331 329 327 325 322 317 311 305 296 284 273 260 247 241 246 248 240 231 228 223 220 222 229 235 233 226 220 218 211 203 207 203 201 201 195
10 45 76 97 95 86 82 101 103 88 81 76 37 351 75 53 8 42 13 33 75 16 90 56 359 328 8 355 360 358 343 343 340 342 344 343 348 348 345 345 348 348 347 349 351 349 348 350 349 349 350 349 348 347 347 339 332 335 335 333 334 332 332 331 328 327 325 321 315 310 300 289 281 268 250 244 246 251 249 235 228 224 218 219 223 231 235 228 222 221 215 206 208 208 206 202 195
9 44 82 92 80 70 24 37 88 89 83 80 97 276 101 88 19 54 13 341 96 56 75 59 22 30 33 9 345 340 338 337 337 342 343 345 349 349 347 348 351 352 350 351 353 350 348 349 349 350 351 351 350 347 349 342 334 335 337 335 334 333 332 332 330 328 328 324 319 314 307 296 290 278 254 244 244 246 250 239 230 224 221 223 222 229 234 231 229 223 215 210 208 209 208 206 201
314 64 73 79 63 60 16 16 56 100 109 100 105 297 22 98 72 110 226 291 98 81 77 99 91 77 60 49 7 348 340 335 342 346 347 349 350 348 349 351 352 353 352 351 353 349 347 349 350 350 351 352 350 349 348 344 340 339 340 337 332 333 333 332 331 331 329 327 325 318 314 310 303 289 264 248 242 243 251 243 230 221 222 226 221 225 228 229 237 227 214 209 206 207 205 205 209
22 67 69 76 61 56 31 32 57 106 107 89 68 353 28 67 21 83 230 238 114 87 71 101 122 71 48 38 19 356 339 336 352 355 351 352 351 348 348 351 351 352 351 350 350 347 347 349 349 351 352 351 350 351 349 345 345 342 341 336 330 331 331 332 331 330 329 328 328 322 318 319 313 298 279 263 249 246 258 253 234 219 221 225 219 222 224 224 234 229 218 213 208 208 204 204 211
38 67 70 69 65 61 50 46 51 80 96 99 79 24 49 46 343 347 336 51 68 49 41 30 31 33 21 17 11 348 332 344 0 1 356 353 351 350 348 347 349 350 349 347 346 344 346 348 348 350 351 351 350 351 350 348 346 343 341 334 331 330 329 331 329 328 329 328 327 323 320 317 314 305 290 276 263 253 254 256 243 228 225 225 218 218 220 224 230 230 227 220 211 210 205 205 210
35 64 79 77 93 79 57 56 47 46 74 98 86 45 66 45 345 340 338 6 54 50 33 9 10 2 355 4 356 336 339 1 4 5 1 354 352 352 348 346 348 348 346 344 342 342 345 346 347 350 349 350 351 350 350 350 345 342 342 337 333 331 328 329 327 327 329 327 326 323 319 316 315 311 298 282 271 258 247 245 242 237 229 224 220 218 220 226 230 229 230 224 217 217 210 206 210
37 49 87 103 106 86 55 57 48 24 25 70 89 89 77 37 6 10 345 340 58 47 30 12 359 344 349 349 336 335 356 6 1 6 3 355 353 352 349 347 346 346 344 342 340 341 344 345 347 349 348 349 351 350 349 349 345 343 343 340 335 332 330 327 326 327 326 326 327 325 319 317 316 312 303 290 276 260 250 244 241 239 229 220 219 220 221 225 228 225 223 222 222 217 206 206 208
69 51 76 94 90 90 72 59 37 7 7 59 75 48 59 14 35 22 8 36 47 22 23 8 345 340 338 318 319 341 1 1 358 4 0 353 353 352 352 349 347 348 345 341 339 341 343 346 348 348 347 348 350 350 350 349 348 345 342 340 337 334 331 327 326 325 324 327 327 324 320 317 316 313 308 297 283 264 254 249 244 237 226 218 218 217 220 225 225 222 221 223 223 214 202 202 204
91 66 63 72 75 82 79 66 21 349 4 42 46 23 341 340 66 30 28 52 37 24 23 341 335 329 310 302 326 351 356 359 4 3 355 350 353 354 353 352 351 349 344 340 339 341 344 346 348 348 346 347 348 349 350 350 349 347 343 340 337 333 331 327 325 323 324 327 326 322 320 318 316 313 310 301 291 280 261 252 251 238 220 214 215 214 217 223 227 228 229 226 223 216 203 197 199
87 89 73 73 77 78 76 82 48 13 43 49 31 280 344 22 39 2 50 58 32 31 360 322 321 303 296 315 351 356 350 3 10 1 356 356 355 353 354 354 351 347 343 339 340 341 344 347 349 349 348 348 348 348 349 350 348 348 346 340 336 334 331 327 324 323 325 328 326 322 320 317 316 313 310 304 296 290 268 255 257 244 215 201 204 213 216 218 225 229 230 226 219 213 202 191 189
74 93 93 89 85 87 93 99 82 53 69 50 313 171 43 33 351 335 59 57 36 16 312 291 286 285 305 354 2 355 350 6 8 356 1 3 357 354 356 356 351 347 342 338 340 342 344 347 349 349 349 349 349 349 349 351 350 350 349 343 338 335 331 327 324 325 327 329 327 324 321 318 318 315 308 306 303 295 278 257 252 241 221 206 205 222 228 223 225 224 226 223 213 210 200 185 175
83 101 103 101 97 101 117 102 85 77 80 1 310 99 74 63 22 353 74 63 35 294 264 238 255 292 358 12 2 352 348 6 5 356 359 358 354 356 357 357 352 347 340 334 338 342 344 347 348 348 350 350 349 349 351 354 354 354 353 347 342 338 333 330 328 329 331 331 330 327 323 320 317 315 310 307 307 299 285 259 246 238 227 226 227 229 231 229 227 221 220 216 205 198 187 176 165
112 108 107 105 112 117 120 105 98 119 94 346 327 90 83 92 108 330 78 67 3 287 273 228 247 342 11 12 355 341 355 7 2 359 357 353 353 353 354 356 352 346 340 335 338 343 345 344 345 348 353 353 349 348 352 355 355 357 359 353 348 345 341 339 337 334 335 334 334 332 327 323 320 318 314 311 312 302 283 256 235 230 226 228 230 227 228 226 218 207 209 207 193 178 166 165 165
122 118 111 107 118 112 108 113 119 208 106 1 348 46 4 123 171 47 70 28 291 288 279 252 42 16 4 6 341 341 18 5 355 16 3 350 348 346 348 355 351 347 344 337 338 343 347 346 345 350 356 354 351 349 350 351 349 354 0 360 355 353 354 354 350 342 341 341 338 337 333 329 326 322 319 324 329 306 258 232 213 213 214 213 220 223 224 223 212 199 205 195 178 168 157 154 159
133 131 113 122 123 90 61 95 125 258 46 34 7 20 249 202 146 102 90 312 293 277 270 263 58 29 355 359 342 358 26 6 359 30 6 342 340 339 343 351 346 345 346 341 340 345 350 350 346 351 355 354 354 352 350 350 343 344 356 4 3 2 2 2 359 353 350 347 343 343 342 336 332 327 331 345 358 40 150 167 171 182 194 198 210 218 216 215 205 197 190 172 164 162 154 147 149
169 163 120 155 134 73 28 49 146 216 76 152 110 49 181 151 136 125 122 289 305 291 291 359 52 30 352 359 358 1 24 14 9 29 14 344 338 337 338 342 341 341 344 344 345 347 352 352 349 352 355 353 356 357 356 353 342 339 352 4 9 9 7 6 4 3 358 351 349 351 350 347 344 342 354 9 33 80 98 108 127 147 168 178 191 221 229 209 193 180 162 152 151 154 149 143 144
186 85 137 205 118 75 29 20 359 139 150 188 179 6 132 135 146 140 140 222 292 305 301 323 40 24 349 356 2 3 15 18 16 20 19 0 344 339 336 333 334 336 340 346 349 349 353 354 351 353 353 352 358 2 1 354 344 343 351 3 12 14 12 10 8 8 8 1 356 359 1 3 6 10 23 43 67 83 92 95 105 122 137 162 195 243 253 207 173 154 149 148 144 145 144 139 139
188 102 359 328 56 115 95 35 18 27 221 206 208 313 102 128 146 145 156 229 264 294 287 300 37 6 359 1 349 5 7 7 20 16 9 1 349 340 336 330 329 330 335 345 350 351 355 355 351 353 353 353 359 4 1 354 351 351 355 4 12 15 15 14 13 12 14 12 10 9 13 18 22 34 51 67 78 82 89 94 99 111 116 138 184 219 204 179 163 145 141 146 143 141 140 134 133
191 75 39 346 22 116 149 66 30 0 305 219 193 283 336 122 139 149 166 217 262 280 286 316 21 2 10 350 332 13 358 350 21 11 357 354 346 338 336 329 325 325 328 338 346 351 355 353 351 353 352 352 357 2 1 357 358 358 0 7 9 13 17 17 18 18 18 21 25 24 26 31 35 49 64 72 77 80 83 87 94 101 104 109 121 142 153 154 157 150 137 138 142 141 137 130 126
4 25 76 3 19 57 136 104 22 352 329 272 200 249 293 131 141 154 162 187 251 271 289 334 4 347 349 332 339 17 348 340 23 360 344 346 336 332 338 331 322 322 323 328 337 346 350 348 350 352 352 353 355 360 3 359 1 4 6 10 9 12 18 19 20 22 22 24 29 32 35 41 45 55 68 74 76 78 80 82 86 93 101 108 111 115 126 136 145 149 138 129 131 133 132 129 125
354 5 20 11 20 66 57 97 9 359 350 324 264 252 277 153 153 159 159 169 225 273 291 338 332 322 331 327 347 11 343 354 17 345 337 347 339 329 334 334 325 320 320 322 329 339 346 346 349 353 353 356 355 358 5 1 0 6 9 10 11 12 18 21 20 21 22 21 25 31 36 41 46 54 67 77 78 80 82 85 90 98 107 112 116 114 115 123 129 135 131 123 120 121 123 124 121
344 333 339 351 321 49 78 91 32 7 344 299 274 278 298 295 252 174 151 154 195 260 263 237 250 240 269 294 339 8 346 356 358 339 340 355 354 342 332 332 331 324 317 318 323 332 340 344 347 351 354 358 356 356 4 4 360 3 6 7 9 12 17 21 20 22 23 21 24 31 35 40 46 53 63 72 77 80 82 85 95 107 116 117 118 119 118 121 126 129 128 127 125 119 119 122 123
320 306 305 313 315 347 117 95 49 13 341 267 248 289 286 282 273 199 140 139 215 243 241 274 285 289 297 302 358 11 352 344 343 343 349 356 359 353 339 334 334 328 318 316 320 327 335 341 342 345 352 358 356 355 1 5 0 357 359 2 5 10 15 18 19 23 25 23 27 34 38 41 46 52 57 65 72 79 81 83 89 98 113 119 117 119 122 124 126 128 128 129 129 123 121 123 124
314 304 308 272 245 313 122 101 42 21 3 270 275 304 280 282 280 210 141 163 230 208 72 356 345 346 319 325 7 9 347 334 338 346 350 351 354 353 346 340 332 320 317 318 317 321 330 337 337 338 348 356 356 355 360 7 6 356 355 360 3 8 14 16 16 20 24 25 28 33 36 40 44 48 53 59 68 77 81 82 82 84 95 109 114 115 119 123 124 127 128 127 127 124 122 124 124
309 294 307 308 338 326 17 95 30 2 352 289 324 318 287 281 269 204 150 190 205 105 98 358 342 321 313 340 358 342 324 325 335 341 342 344 346 348 346 341 333 319 319 321 312 315 326 334 334 334 343 350 352 355 0 8 13 1 358 3 3 11 18 19 22 24 26 27 30 32 35 39 43 46 49 53 59 66 74 79 83 85 87 94 105 109 112 116 119 126 130 129 128 124 123 124 137
340 5 348 333 7 357 288 53 351 314 279 287 306 296 283 277 251 192 169 178 120 112 139 197 224 261 301 317 301 296 324 332 334 333 334 338 340 344 343 338 335 327 324 321 309 311 323 331 332 331 338 342 344 354 1 8 14 5 6 11 9 17 23 25 31 33 31 30 31 32 35 39 43 47 49 50 52 54 59 66 78 87 90 92 98 101 103 108 113 118 124 128 129 129 129 113 105
32 35 37 331 344 341 266 305 318 303 270 278 296 292 284 247 197 199 177 131 107 154 161 231 234 205 237 269 259 275 6 347 335 330 328 333 336 341 339 334 333 331 329 319 309 312 318 326 329 330 336 338 335 347 359 6 10 7 10 13 10 15 21 24 29 31 30 30 30 33 35 39 43 46 49 52 53 53 54 56 63 74 83 91 95 97 98 102 106 106 111 121 130 137 139 122 119
16 4 1 328 311 298 288 305 319 326 305 296 351 11 305 234 192 210 151 133 228 185 164 226 237 191 213 251 236 63 13 345 345 326 318 327 334 335 332 331 331 329 327 316 312 317 317 320 324 327 334 336 331 338 353 3 6 7 12 11 6 5 9 17 22 22 27 31 35 36 37 41 43 46 49 52 54 55 56 57 59 64 70 78 86 93 99 105 106 99 101 116 131 143 138 127 127
293 244 279 322 300 279 285 308 342 4 286 282 56 80 288 297 250 210 144 171 254 201 173 202 195 168 219 280 51 55 354 340 336 306 305 320 327 328 326 327 326 322 322 320 320 323 321 319 320 321 326 331 331 332 343 357 2 7 12 10 11 5 0 9 13 14 23 33 41 45 44 45 45 46 50 52 55 56 57 59 60 63 66 72 83 93 96 100 100 88 77 73 94 122 135 134 127
263 225 272 306 278 263 286 318 262 240 293 322 23 73 210 290 285 158 101 267 278 257 159 159 152 171 202 286 33 43 328 327 326 303 303 313 317 319 317 317 317 315 317 322 327 325 322 321 320 321 322 326 328 327 335 347 354 4 6 0 12 13 1 6 6 4 16 25 35 43 45 50 52 50 51 53 56 58 58 60 62 63 64 64 69 80 90 96 98 93 88 86 92 96 122 135 120
247 211 268 289 287 292 312 330 265 270 24 351 330 26 113 277 290 44 60 304 288 29 98 125 150 167 170 197 13 333 276 275 321 310 308 311 312 308 305 305 308 312 311 316 324 324 322 324 324 326 327 326 325 321 327 338 343 354 359 352 360 8 5 14 7 360 12 19 23 29 32 39 50 55 57 57 57 59 59 60 63 64 64 64 63 63 67 72 78 91 100 105 108 108 120 130 115
342 36 265 249 295 306 296 299 280 295 46 233 288 340 13 291 280 252 223 264 302 30 72 117 143 152 172 197 203 247 258 224 290 305 308 310 310 302 298 298 301 304 302 308 316 317 321 324 324 326 328 328 325 319 319 325 331 339 346 348 351 354 357 8 9 1 10 16 17 23 23 20 31 46 54 59 61 62 63 62 63 65 66 68 70 68 63 60 61 69 83 97 112 118 128 138 132
4 18 271 224 237 239 201 243 269 335 2 231 267 329 13 306 275 197 165 195 58 30 22 44 64 76 170 191 211 270 292 299 288 300 305 309 310 301 293 294 296 297 293 297 304 306 310 316 319 321 323 324 323 321 321 319 319 324 330 338 342 345 348 354 359 358 4 10 9 18 22 13 14 28 41 49 58 64 66 68 68 69 70 69 68 69 67 62 61 65 73 82 95 106 120 139 137
17 264 250 306 272 272 120 226 106 57 335 243 220 315 59 205 266 131 125 117 83 64 25 15 3 355 360 2 344 325 320 309 297 292 292 299 305 299 291 291 293 293 289 285 288 292 296 301 307 312 316 318 316 318 322 321 318 315 315 320 325 333 337 342 350 351 350 356 357 2 15 12 3 9 25 34 41 52 59 65 71 74 76 76 71 67 67 67 67 68 72 77 84 94 102 114 120
348 268 309 9 10 19 22 332 25 60 264 220 193 276 236 214 237 134 123 117 96 86 75 35 348 329 328 326 318 311 303 292 280 267 267 276 285 287 284 285 288 289 286 284 283 281 285 290 294 298 305 311 308 310 316 320 320 316 311 307 306 313 316 321 334 339 336 340 344 346 356 6 358 353 3 17 22 31 42 47 56 65 69 77 81 79 78 75 74 75 76 81 85 89 88 89 104
347 1 17 22 32 30 357 332 348 327 264 220 184 220 278 262 266 125 120 115 117 123 134 153 244 269 280 283 285 289 283 273 264 250 254 268 277 283 283 281 284 285 286 286 283 280 280 284 285 286 292 298 298 301 307 313 318 318 313 306 302 302 300 300 304 307 310 316 324 328 332 347 351 337 338 354 4 3 12 25 33 45 56 67 78 91 97 96 96 92 87 91 93 95 94 94 103
319 315 89 62 67 63 345 338 315 288 295 293 202 146 228 252 276 120 114 115 139 170 191 198 230 242 249 258 265 276 277 275 273 263 264 274 280 285 287 285 283 284 286 286 283 281 280 279 280 281 283 286 287 288 294 301 307 311 310 307 304 301 297 294 290 284 282 287 294 296 297 305 305 301 309 321 333 334 338 348 353 7 22 43 63 85 109 117 127 124 122 127 123 124 124 121 124
283 297 62 72 171 196 228 233 228 263 323 310 268 216 204 207 266 121 113 129 201 216 227 225 241 248 245 257 264 267 271 275 279 275 271 279 286 286 285 286 286 285 285 285 283 282 279 277 278 278 279 281 279 278 282 289 295 298 299 300 300 298 295 293 291 287 283 282 284 283 278 275 269 270 283 296 301 298 298 301 300 307 314 313 308 253 195 176 185 177 164 169 171 173 178 179 176
308 356 44 194 194 132 118 342 358 74 24 289 283 296 302 343 323 243 134 222 224 212 231 244 249 253 253 262 264 261 268 276 279 280 281 288 295 294 289 286 285 286 286 285 284 282 278 276 276 276 278 279 276 274 275 279 282 286 289 291 291 292 291 289 289 289 286 283 283 284 281 273 267 262 262 270 274 275 276 275 273 269 266 264 261 254 240 224 219 214 207 207 204 199 202 201 196
47 10 181 184 60 82 109 358 346 1 323 283 310 320 299 297 308 308 219 232 226 200 208 260 265 259 259 271 274 272 278 284 291 294 295 295 297 294 291 287 283 284 285 285 287 286 281 277 275 275 277 278 276 273 271 272 274 276 281 283 284 285 286 284 284 284 283 282 281 283 281 277 275 271 265 261 256 257 260 260 263 264 259 254 249 247 242 234 234 233 225 222 222 218 219 219 214
55 58 163 121 61 44 314 331 332 343 321 289 304 319 292 229 228 277 227 218 210 187 195 233 261 265 269 275 283 290 294 296 295 294 293 294 295 291 289 288 286 285 284 285 288 289 287 283 279 277 277 278 277 273 266 264 267 271 274 277 278 279 280 280 280 278 276 276 277 279 279 278 278 274 271 270 264 258 254 251 252 253 254 255 252 249 246 240 240 239 233 230 227 221 223 226 223
354 10 30 46 117 157 254 276 201 212 295 298 314 324 299 237 208 217 201 194 178 174 209 239 260 270 270 271 280 289 290 285 281 280 280 287 291 292 290 287 286 287 287 287 289 290 292 291 287 283 280 279 277 272 267 263 264 268 269 272 273 274 275 277 277 276 273 273 273 274 274 275 275 273 271 272 270 267 262 257 253 248 246 246 247 247 246 244 242 241 240 239 234 228 228 230 228
6 21 24 4 19 114 254 293 98 123 195 302 317 298 275 251 222 199 128 149 154 159 220 259 268 271 274 278 280 279 277 273 272 270 271 279 285 290 291 289 287 287 288 291 293 293 295 295 292 289 286 283 279 275 272 268 268 267 266 267 269 270 271 272 273 273 272 273 273 271 272 273 272 270 269 269 269 269 267 265 261 256 252 248 245 244 242 241 241 241 241 240 239 239 237 234 234
66 69 62 33 15 37 6 338 347 48 161 224 289 291 277 262 238 206 105 120 162 182 220 257 271 273 277 279 272 268 269 266 264 265 268 274 280 285 289 291 290 287 288 292 295 294 292 291 293 292 287 285 285 283 278 274 272 269 266 267 268 268 269 268 269 269 269 271 272 272 272 271 269 269 268 266 266 267 266 264 262 260 258 254 250 248 244 242 240 240 238 235 234 239 242 240 236